AAL407 KLAS-KFLL

Flight info

Callsign AAL407
Flight time 3h 50m
Altitude 39000
Route NIITZ4 SSKEE GUP TXO CIYAL/N0478F410 MQP ARDIA LFK ZIROR LEV Y290 DOWRY TEEKY4
Aircraft B789/H-SDE1E2E3FGHIJ2J3J4J5M1RWXY/LB1D1

Departure

Time 2026-05-05 15:48
Airport Harry Reid International Airport (KLAS)

Arrival

Time 2026-05-05 19:39
Airport Fort Lauderdale Hollywood International Airport (KFLL)
Time Latitude Longitude Altitude Speed Heading
2026-05-05 15:28 36.07989 -115.14050 2194 ft 0 kts 57°
2026-05-05 15:39 36.07983 -115.14061 2194 ft 2 kts 57°
2026-05-05 15:39 36.07973 -115.14080 2194 ft 3 kts 57°
2026-05-05 15:40 36.07962 -115.14101 2194 ft 3 kts 57°
2026-05-05 15:40 36.07951 -115.14122 2194 ft 3 kts 57°
2026-05-05 15:40 36.07941 -115.14141 2194 ft 1 kts 57°
2026-05-05 15:41 36.07942 -115.14137 2194 ft 1 kts 70°
2026-05-05 15:41 36.07939 -115.14123 2194 ft 3 kts 122°
2026-05-05 15:41 36.07919 -115.14088 2194 ft 7 kts 131°
2026-05-05 15:41 36.07882 -115.14038 2194 ft 5 kts 132°
2026-05-05 15:42 36.07852 -115.13997 2194 ft 8 kts 132°
2026-05-05 15:42 36.07828 -115.13920 2194 ft 11 kts 95°
2026-05-05 15:42 36.07825 -115.13807 2194 ft 15 kts 92°
2026-05-05 15:42 36.07822 -115.13666 2194 ft 18 kts 90°
2026-05-05 15:43 36.07824 -115.13503 2194 ft 20 kts 89°
2026-05-05 15:43 36.07828 -115.13322 2194 ft 22 kts 88°
2026-05-05 15:43 36.07832 -115.13128 2194 ft 21 kts 89°
2026-05-05 15:43 36.07832 -115.13108 2194 ft 0 kts 89°
2026-05-05 15:44 36.07832 -115.13102 2194 ft 3 kts 89°
2026-05-05 15:44 36.07833 -115.13044 2194 ft 11 kts 89°
2026-05-05 15:45 36.07835 -115.12914 2194 ft 20 kts 90°
2026-05-05 15:45 36.07837 -115.12708 2194 ft 28 kts 88°
2026-05-05 15:45 36.07834 -115.12447 2194 ft 32 kts 90°
2026-05-05 15:45 36.07797 -115.12244 2194 ft 15 kts 160°
2026-05-05 15:46 36.07760 -115.12237 2194 ft 0 kts 176°
2026-05-05 15:46 36.07751 -115.12236 2194 ft 3 kts 176°
2026-05-05 15:46 36.07690 -115.12237 2194 ft 16 kts 189°
2026-05-05 15:46 36.07643 -115.12379 2194 ft 27 kts 271°
2026-05-05 15:47 36.07643 -115.12707 2194 ft 65 kts 270°
2026-05-05 15:47 36.07640 -115.13653 2194 ft 153 kts 270°
2026-05-05 15:47 36.07636 -115.15236 2382 ft 206 kts 268°
2026-05-05 15:47 36.07624 -115.17231 2452 ft 256 kts 268°
2026-05-05 15:48 36.07635 -115.19445 2734 ft 255 kts 269°
2026-05-05 15:48 36.07541 -115.21648 3513 ft 257 kts 261°
2026-05-05 15:48 36.07223 -115.23801 4577 ft 254 kts 258°
2026-05-05 15:48 36.06687 -115.25900 5284 ft 263 kts 240°
2026-05-05 15:49 36.05369 -115.27482 6064 ft 271 kts 210°
2026-05-05 15:49 36.03563 -115.28185 7000 ft 274 kts 193°
2026-05-05 15:49 36.01655 -115.28743 7474 ft 287 kts 195°
2026-05-05 15:49 35.99694 -115.29299 7807 ft 295 kts 186°
2026-05-05 15:50 35.97671 -115.28872 8622 ft 298 kts 157°
2026-05-05 15:50 35.96031 -115.27329 9660 ft 296 kts 133°
2026-05-05 15:50 35.94730 -115.25375 10659 ft 297 kts 130°
2026-05-05 15:50 35.93324 -115.23430 11228 ft 311 kts 134°
2026-05-05 15:51 35.91760 -115.21482 11713 ft 327 kts 136°
2026-05-05 15:51 35.90221 -115.19320 12085 ft 346 kts 124°
2026-05-05 15:51 35.89035 -115.16685 12556 ft 358 kts 118°
2026-05-05 15:51 35.87873 -115.13951 13076 ft 368 kts 118°
2026-05-05 15:52 35.86913 -115.10993 13612 ft 378 kts 104°
2026-05-05 15:52 35.86738 -115.07738 14268 ft 383 kts 89°
2026-05-05 15:52 35.86902 -115.04439 14946 ft 387 kts 86°
2026-05-05 15:52 35.87123 -115.01108 15582 ft 392 kts 85°
2026-05-05 15:53 35.87338 -114.97737 16197 ft 397 kts 86°
2026-05-05 15:53 35.87539 -114.94330 16831 ft 400 kts 86°
2026-05-05 15:53 35.87731 -114.90892 17469 ft 403 kts 86°
2026-05-05 15:53 35.87921 -114.87414 18056 ft 408 kts 86°
2026-05-05 15:54 35.88109 -114.83905 18608 ft 412 kts 86°
2026-05-05 15:54 35.88295 -114.80351 19154 ft 417 kts 86°
2026-05-05 15:54 35.88479 -114.76813 19694 ft 421 kts 86°
2026-05-05 15:54 35.88667 -114.73184 20266 ft 425 kts 86°
2026-05-05 15:55 35.88857 -114.69531 20831 ft 429 kts 87°
2026-05-05 15:55 35.89046 -114.65834 21347 ft 433 kts 87°
2026-05-05 15:55 35.89234 -114.62116 21841 ft 437 kts 87°
2026-05-05 15:55 35.89423 -114.58362 22344 ft 441 kts 87°
2026-05-05 15:56 35.89558 -114.54558 22843 ft 445 kts 89°
2026-05-05 15:56 35.89614 -114.50732 23324 ft 448 kts 90°
2026-05-05 15:56 35.89640 -114.46877 23821 ft 451 kts 91°
2026-05-05 15:56 35.89644 -114.42991 24300 ft 455 kts 91°
2026-05-05 15:57 35.89634 -114.39076 24773 ft 458 kts 91°
2026-05-05 15:57 35.89616 -114.35118 25251 ft 462 kts 91°
2026-05-05 15:57 35.89595 -114.31174 25726 ft 465 kts 91°
2026-05-05 15:57 35.89571 -114.27171 26180 ft 469 kts 91°
2026-05-05 15:58 35.89545 -114.23122 26632 ft 473 kts 91°
2026-05-05 15:58 35.89517 -114.19044 27066 ft 476 kts 92°
2026-05-05 15:58 35.89488 -114.14948 27485 ft 480 kts 92°
2026-05-05 15:58 35.89457 -114.10810 27902 ft 483 kts 92°
2026-05-05 15:59 35.89424 -114.06642 28308 ft 487 kts 92°
2026-05-05 15:59 35.89390 -114.02460 28708 ft 490 kts 92°
2026-05-05 15:59 35.89354 -113.98250 29105 ft 493 kts 92°
2026-05-05 15:59 35.89317 -113.94040 29498 ft 496 kts 92°
2026-05-05 16:00 35.89277 -113.89777 29883 ft 499 kts 92°
2026-05-05 16:00 35.89235 -113.85472 30265 ft 502 kts 92°
2026-05-05 16:00 35.89192 -113.81155 30623 ft 506 kts 92°
2026-05-05 16:00 35.89146 -113.76791 30962 ft 510 kts 92°
2026-05-05 16:01 35.89100 -113.72395 31303 ft 513 kts 92°
2026-05-05 16:01 35.89051 -113.67988 31707 ft 515 kts 92°
2026-05-05 16:01 35.89001 -113.63554 32161 ft 516 kts 93°
2026-05-05 16:01 35.88889 -113.59123 32624 ft 515 kts 96°
2026-05-05 16:02 35.88580 -113.54788 33079 ft 515 kts 98°
2026-05-05 16:02 35.88177 -113.50406 33514 ft 514 kts 99°
2026-05-05 16:02 35.87703 -113.46023 33946 ft 514 kts 101°
2026-05-05 16:02 35.87163 -113.41670 34352 ft 514 kts 102°
2026-05-05 16:03 35.86573 -113.37315 34763 ft 514 kts 103°
2026-05-05 16:03 35.85958 -113.32965 35147 ft 514 kts 103°
2026-05-05 16:03 35.85339 -113.28676 35532 ft 514 kts 103°
2026-05-05 16:03 35.84701 -113.24283 35884 ft 515 kts 103°
2026-05-05 16:04 35.84071 -113.19946 36232 ft 515 kts 103°
2026-05-05 16:04 35.83446 -113.15652 36575 ft 515 kts 104°
2026-05-05 16:04 35.82804 -113.11258 36914 ft 515 kts 104°
2026-05-05 16:04 35.82175 -113.06963 37192 ft 515 kts 104°
2026-05-05 16:05 35.81537 -113.02621 37482 ft 516 kts 104°
2026-05-05 16:05 35.80897 -112.98260 37756 ft 516 kts 104°
2026-05-05 16:05 35.80257 -112.93913 38007 ft 517 kts 104°
2026-05-05 16:05 35.79610 -112.89546 38268 ft 517 kts 104°
2026-05-05 16:06 35.78962 -112.85176 38506 ft 518 kts 104°
2026-05-05 16:06 35.78312 -112.80805 38745 ft 518 kts 105°
2026-05-05 16:06 35.77667 -112.76472 38956 ft 519 kts 105°
2026-05-05 16:06 35.77016 -112.72106 39150 ft 519 kts 105°
2026-05-05 16:07 35.76361 -112.67720 39256 ft 521 kts 105°
2026-05-05 16:07 35.75036 -112.58887 39281 ft 529 kts 105°
2026-05-05 16:08 35.73689 -112.49936 39293 ft 531 kts 105°
2026-05-05 16:08 35.72337 -112.40985 39300 ft 532 kts 105°
2026-05-05 16:09 35.70978 -112.32028 39304 ft 532 kts 105°
2026-05-05 16:09 35.69621 -112.23138 39299 ft 532 kts 105°
2026-05-05 16:10 35.68248 -112.14194 39310 ft 532 kts 105°
2026-05-05 16:10 35.66867 -112.05250 39311 ft 532 kts 105°
2026-05-05 16:11 35.65478 -111.96306 39300 ft 533 kts 105°
2026-05-05 16:12 35.63070 -111.78273 39311 ft 538 kts 97°
2026-05-05 16:13 35.62169 -111.55258 39291 ft 541 kts 96°
2026-05-05 16:13 35.61769 -111.46020 39276 ft 542 kts 97°
2026-05-05 16:14 35.60939 -111.27553 39278 ft 544 kts 97°
2026-05-05 16:15 35.60078 -111.08948 39247 ft 545 kts 97°
2026-05-05 16:16 35.59190 -110.90359 39227 ft 547 kts 97°
2026-05-05 16:17 35.58499 -110.76328 39232 ft 548 kts 97°
2026-05-05 16:18 35.57793 -110.62286 39205 ft 550 kts 97°
2026-05-05 16:19 35.57073 -110.48274 39179 ft 550 kts 97°
2026-05-05 16:19 35.56328 -110.34188 39193 ft 550 kts 97°
2026-05-05 16:20 35.55400 -110.16988 39197 ft 551 kts 97°
2026-05-05 16:22 35.54094 -109.93531 39228 ft 552 kts 97°
2026-05-05 16:23 35.53015 -109.74716 39246 ft 552 kts 97°
2026-05-05 16:23 35.52184 -109.60616 39266 ft 553 kts 98°
2026-05-05 16:24 35.51620 -109.51221 39280 ft 553 kts 98°
2026-05-05 16:25 35.50763 -109.37064 39277 ft 553 kts 98°
2026-05-05 16:25 35.49890 -109.22946 39282 ft 554 kts 98°
2026-05-05 16:26 35.48694 -109.04125 39291 ft 555 kts 98°
2026-05-05 16:27 35.48084 -108.94685 39277 ft 555 kts 98°
2026-05-05 16:27 35.47198 -108.85352 39266 ft 553 kts 102°
2026-05-05 16:28 35.46057 -108.76030 39275 ft 553 kts 103°
2026-05-05 16:28 35.44798 -108.66717 39271 ft 552 kts 103°
2026-05-05 16:29 35.43507 -108.57436 39264 ft 552 kts 103°
2026-05-05 16:29 35.42211 -108.48140 39277 ft 553 kts 103°
2026-05-05 16:30 35.40923 -108.38911 39266 ft 553 kts 103°
2026-05-05 16:30 35.39618 -108.29612 39272 ft 552 kts 103°
2026-05-05 16:31 35.38305 -108.20331 39282 ft 553 kts 103°
2026-05-05 16:31 35.36990 -108.11093 39280 ft 553 kts 104°
2026-05-05 16:32 35.35654 -108.01774 39293 ft 553 kts 104°
2026-05-05 16:32 35.34312 -107.92472 39286 ft 556 kts 103°
2026-05-05 16:33 35.32970 -107.83193 39286 ft 555 kts 103°
2026-05-05 16:33 35.31615 -107.73873 39292 ft 555 kts 104°
2026-05-05 16:34 35.30252 -107.64557 39277 ft 555 kts 104°
2026-05-05 16:34 35.28879 -107.55228 39279 ft 556 kts 104°
2026-05-05 16:35 35.27506 -107.45952 39272 ft 557 kts 104°
2026-05-05 16:35 35.26111 -107.36572 39256 ft 557 kts 104°
2026-05-05 16:36 35.24725 -107.27303 39243 ft 557 kts 104°
2026-05-05 16:36 35.23317 -107.17959 39231 ft 558 kts 104°
2026-05-05 16:37 35.21903 -107.08606 39218 ft 558 kts 104°
2026-05-05 16:37 35.20483 -106.99260 39209 ft 558 kts 104°
2026-05-05 16:38 35.19061 -106.89967 39204 ft 559 kts 104°
2026-05-05 16:38 35.17617 -106.80578 39197 ft 560 kts 104°
2026-05-05 16:39 35.16171 -106.71208 39203 ft 560 kts 104°
2026-05-05 16:39 35.14728 -106.61921 39188 ft 560 kts 104°
2026-05-05 16:40 35.13262 -106.52548 39172 ft 561 kts 104°
2026-05-05 16:40 35.11790 -106.43171 39183 ft 561 kts 104°
2026-05-05 16:41 35.10320 -106.33843 39199 ft 561 kts 104°
2026-05-05 16:41 35.08833 -106.24469 39213 ft 561 kts 104°
2026-05-05 16:42 35.07340 -106.15112 39230 ft 561 kts 104°
2026-05-05 16:42 35.05839 -106.05750 39245 ft 561 kts 104°
2026-05-05 16:43 35.04339 -105.96443 39257 ft 562 kts 104°
2026-05-05 16:43 35.02818 -105.87069 39247 ft 562 kts 104°
2026-05-05 16:44 35.01293 -105.77704 39248 ft 562 kts 104°
2026-05-05 16:44 34.99761 -105.68341 39254 ft 562 kts 104°
2026-05-05 16:45 34.98234 -105.59037 39239 ft 561 kts 104°
2026-05-05 16:45 34.96698 -105.49739 39239 ft 562 kts 104°
2026-05-05 16:46 34.95144 -105.40393 39227 ft 562 kts 104°
2026-05-05 16:46 34.93585 -105.31053 39228 ft 562 kts 104°
2026-05-05 16:47 34.92029 -105.21773 39210 ft 562 kts 104°
2026-05-05 16:47 34.90454 -105.12434 39185 ft 560 kts 104°
2026-05-05 16:48 34.88877 -105.03130 39173 ft 562 kts 104°
2026-05-05 16:48 34.87290 -104.93803 39163 ft 561 kts 104°
2026-05-05 16:49 34.85707 -104.84547 39158 ft 561 kts 104°
2026-05-05 16:49 34.84107 -104.75236 39153 ft 561 kts 104°
2026-05-05 16:50 34.82499 -104.65935 39152 ft 561 kts 104°
2026-05-05 16:50 34.80895 -104.56694 39152 ft 561 kts 104°
2026-05-05 16:51 34.79276 -104.47406 39140 ft 561 kts 104°
2026-05-05 16:51 34.77648 -104.38116 39138 ft 561 kts 104°
2026-05-05 16:52 34.76014 -104.28843 39124 ft 560 kts 104°
2026-05-05 16:52 34.74372 -104.19556 39114 ft 561 kts 104°
2026-05-05 16:53 34.72734 -104.10342 39104 ft 560 kts 104°
2026-05-05 16:53 34.71084 -104.01088 39096 ft 560 kts 104°
2026-05-05 16:54 34.69419 -103.91801 39094 ft 561 kts 104°
2026-05-05 16:54 34.67751 -103.82543 39082 ft 562 kts 104°
2026-05-05 16:55 34.66071 -103.73260 39090 ft 562 kts 104°
2026-05-05 16:55 34.64387 -103.63997 39095 ft 562 kts 104°
2026-05-05 16:56 34.62703 -103.54783 39083 ft 562 kts 104°
2026-05-05 16:56 34.61004 -103.45525 39094 ft 562 kts 104°
2026-05-05 16:57 34.59290 -103.36229 39098 ft 563 kts 105°
2026-05-05 16:57 34.57584 -103.27010 39093 ft 563 kts 105°
2026-05-05 16:58 34.55861 -103.17751 39122 ft 564 kts 104°
2026-05-05 16:58 34.54122 -103.08441 39144 ft 564 kts 105°
2026-05-05 16:59 34.52383 -102.99170 39162 ft 564 kts 105°
2026-05-05 16:59 34.50571 -102.89968 39170 ft 564 kts 108°
2026-05-05 17:00 34.48185 -102.80925 39158 ft 562 kts 112°
2026-05-05 17:00 34.45447 -102.72061 39146 ft 561 kts 115°
2026-05-05 17:01 34.42481 -102.63253 39149 ft 561 kts 116°
2026-05-05 17:01 34.39508 -102.54585 39134 ft 561 kts 116°
2026-05-05 17:02 34.36504 -102.45840 39127 ft 561 kts 116°
2026-05-05 17:02 34.33502 -102.37103 39134 ft 561 kts 116°
2026-05-05 17:03 34.30521 -102.28444 39117 ft 561 kts 116°
2026-05-05 17:03 34.27510 -102.19733 39101 ft 561 kts 116°
2026-05-05 17:04 34.24485 -102.11013 39108 ft 562 kts 116°
2026-05-05 17:04 34.21460 -102.02311 39116 ft 562 kts 116°
2026-05-05 17:05 34.18427 -101.93601 39109 ft 562 kts 116°
2026-05-05 17:05 34.15393 -101.84916 39122 ft 562 kts 116°
2026-05-05 17:06 34.12367 -101.76279 39114 ft 562 kts 116°
2026-05-05 17:06 34.09301 -101.67549 39119 ft 562 kts 116°
2026-05-05 17:07 34.06257 -101.58909 39119 ft 563 kts 116°
2026-05-05 17:07 34.03193 -101.50234 39102 ft 562 kts 116°
2026-05-05 17:08 34.00112 -101.41537 39089 ft 562 kts 116°
2026-05-05 17:08 33.97561 -101.34353 39079 ft 559 kts 116°
2026-05-05 17:09 33.94493 -101.25726 39079 ft 560 kts 116°
2026-05-05 17:09 33.91434 -101.17153 39069 ft 560 kts 116°
2026-05-05 17:10 33.88352 -101.08544 39059 ft 560 kts 116°
2026-05-05 17:10 33.85261 -100.99944 39058 ft 559 kts 116°
2026-05-05 17:11 33.82174 -100.91360 39051 ft 559 kts 116°
2026-05-05 17:11 33.79076 -100.82769 39050 ft 559 kts 116°
2026-05-05 17:12 33.75976 -100.74197 39049 ft 559 kts 116°
2026-05-05 17:12 33.72860 -100.65605 39036 ft 560 kts 116°
2026-05-05 17:13 33.69737 -100.57016 39028 ft 560 kts 116°
2026-05-05 17:13 33.66634 -100.48493 39038 ft 561 kts 117°
2026-05-05 17:14 33.63494 -100.39898 39019 ft 561 kts 117°
2026-05-05 17:14 33.60354 -100.31327 39000 ft 560 kts 117°
2026-05-05 17:15 33.57212 -100.22776 38988 ft 561 kts 117°
2026-05-05 17:15 33.54080 -100.14272 38977 ft 560 kts 117°
2026-05-05 17:16 33.50921 -100.05720 38987 ft 560 kts 117°
2026-05-05 17:16 33.47754 -99.97173 38979 ft 561 kts 117°
2026-05-05 17:17 33.44581 -99.88632 38975 ft 560 kts 117°
2026-05-05 17:17 33.41429 -99.80160 38983 ft 559 kts 117°
2026-05-05 17:18 33.38257 -99.71657 38963 ft 559 kts 117°
2026-05-05 17:18 33.35073 -99.63147 38957 ft 559 kts 117°
2026-05-05 17:19 33.31888 -99.54650 38968 ft 559 kts 117°
2026-05-05 17:19 33.28713 -99.46210 38954 ft 558 kts 117°
2026-05-05 17:20 33.25527 -99.37756 38957 ft 558 kts 117°
2026-05-05 17:20 33.22328 -99.29292 38959 ft 557 kts 117°
2026-05-05 17:21 33.19150 -99.20899 38943 ft 557 kts 117°
2026-05-05 17:22 33.14333 -99.08217 38952 ft 557 kts 117°
2026-05-05 17:22 33.11143 -98.99853 38942 ft 556 kts 117°
2026-05-05 17:23 33.07931 -98.91455 38927 ft 556 kts 117°
2026-05-05 17:23 33.04711 -98.83048 38934 ft 556 kts 117°
2026-05-05 17:24 33.01501 -98.74648 38933 ft 556 kts 117°
2026-05-05 17:24 32.98317 -98.66309 38921 ft 556 kts 117°
2026-05-05 17:25 32.95109 -98.57928 38930 ft 556 kts 117°
2026-05-05 17:25 32.91896 -98.49551 38925 ft 556 kts 117°
2026-05-05 17:26 32.88676 -98.41179 38927 ft 555 kts 117°
2026-05-05 17:26 32.85456 -98.32836 38937 ft 555 kts 117°
2026-05-05 17:27 32.82225 -98.24482 38926 ft 555 kts 117°
2026-05-05 17:27 32.78997 -98.16153 38933 ft 554 kts 117°
2026-05-05 17:28 32.75765 -98.07833 38935 ft 554 kts 117°
2026-05-05 17:28 32.72503 -97.99524 38926 ft 554 kts 118°
2026-05-05 17:29 32.69155 -97.91284 38940 ft 553 kts 118°
2026-05-05 17:29 32.65771 -97.83074 38951 ft 553 kts 118°
2026-05-05 17:30 32.62403 -97.74923 38944 ft 553 kts 118°
2026-05-05 17:30 32.59018 -97.66738 38939 ft 553 kts 119°
2026-05-05 17:31 32.55621 -97.58546 38946 ft 554 kts 118°
2026-05-05 17:31 32.52218 -97.50359 38941 ft 553 kts 119°
2026-05-05 17:32 32.48816 -97.42189 38955 ft 553 kts 119°
2026-05-05 17:32 32.45421 -97.34053 38943 ft 553 kts 119°
2026-05-05 17:33 32.42000 -97.25874 38948 ft 553 kts 119°
2026-05-05 17:33 32.38578 -97.17713 38949 ft 553 kts 119°
2026-05-05 17:34 32.35156 -97.09566 38943 ft 553 kts 119°
2026-05-05 17:34 32.31725 -97.01409 38957 ft 553 kts 119°
2026-05-05 17:35 32.28219 -96.93383 38945 ft 553 kts 121°
2026-05-05 17:35 32.24429 -96.85466 38949 ft 552 kts 123°
2026-05-05 17:36 32.20558 -96.77623 38957 ft 552 kts 123°
2026-05-05 17:36 32.16690 -96.69790 38947 ft 551 kts 123°
2026-05-05 17:37 32.12857 -96.62037 38957 ft 551 kts 123°
2026-05-05 17:37 32.08984 -96.54217 38961 ft 551 kts 123°
2026-05-05 17:38 32.05113 -96.46418 38953 ft 551 kts 123°
2026-05-05 17:38 32.01231 -96.38615 38967 ft 551 kts 123°
2026-05-05 17:39 31.97355 -96.30845 38957 ft 549 kts 123°
2026-05-05 17:39 31.93475 -96.23079 38959 ft 550 kts 123°
2026-05-05 17:40 31.89606 -96.15352 38968 ft 551 kts 123°
2026-05-05 17:40 31.85708 -96.07580 38955 ft 550 kts 123°
2026-05-05 17:41 31.81808 -95.99821 38966 ft 551 kts 123°
2026-05-05 17:41 31.77921 -95.92103 38960 ft 551 kts 123°
2026-05-05 17:42 31.74009 -95.84355 38957 ft 549 kts 123°
2026-05-05 17:42 31.70109 -95.76637 38969 ft 550 kts 123°
2026-05-05 17:43 31.66200 -95.68920 38955 ft 548 kts 123°
2026-05-05 17:43 31.62290 -95.61223 38965 ft 549 kts 123°
2026-05-05 17:44 31.58377 -95.53534 38966 ft 548 kts 123°
2026-05-05 17:44 31.54493 -95.45921 38958 ft 547 kts 123°
2026-05-05 17:45 31.50582 -95.38263 38974 ft 546 kts 123°
2026-05-05 17:45 31.46665 -95.30614 38971 ft 546 kts 123°
2026-05-05 17:46 31.42758 -95.22991 38971 ft 546 kts 123°
2026-05-05 17:46 31.38864 -95.15411 38983 ft 545 kts 123°
2026-05-05 17:47 31.34944 -95.07801 38975 ft 545 kts 123°
2026-05-05 17:47 31.31026 -95.00208 38977 ft 544 kts 123°
2026-05-05 17:48 31.27128 -94.92666 38989 ft 545 kts 123°
2026-05-05 17:48 31.23211 -94.85105 38976 ft 543 kts 123°
2026-05-05 17:49 31.19286 -94.77542 38982 ft 544 kts 123°
2026-05-05 17:49 31.15566 -94.69829 38989 ft 545 kts 117°
2026-05-05 17:50 31.12417 -94.61776 38974 ft 545 kts 114°
2026-05-05 17:50 31.09390 -94.53657 38986 ft 545 kts 114°
2026-05-05 17:51 31.06346 -94.45595 38994 ft 544 kts 115°
2026-05-05 17:51 31.03249 -94.37535 38984 ft 544 kts 115°
2026-05-05 17:52 31.00149 -94.29476 38999 ft 544 kts 115°
2026-05-05 17:52 30.97076 -94.21480 38996 ft 543 kts 115°
2026-05-05 17:53 30.93988 -94.13455 38996 ft 543 kts 115°
2026-05-05 17:53 30.90894 -94.05425 39006 ft 542 kts 115°
2026-05-05 17:54 30.87804 -93.97420 38996 ft 542 kts 115°
2026-05-05 17:54 30.84707 -93.89428 39002 ft 540 kts 115°
2026-05-05 17:55 30.81607 -93.81446 39008 ft 541 kts 115°
2026-05-05 17:55 30.78525 -93.73525 39003 ft 539 kts 115°
2026-05-05 17:56 30.75426 -93.65581 39019 ft 540 kts 115°
2026-05-05 17:56 30.72841 -93.58963 39019 ft 540 kts 115°
2026-05-05 17:57 30.69731 -93.51019 39011 ft 538 kts 115°
2026-05-05 17:57 30.66621 -93.43094 39025 ft 539 kts 115°
2026-05-05 17:58 30.63509 -93.35183 39016 ft 539 kts 115°
2026-05-05 17:58 30.60405 -93.27315 39015 ft 539 kts 115°
2026-05-05 17:59 30.57281 -93.19411 39022 ft 537 kts 115°
2026-05-05 17:59 30.54158 -93.11520 39007 ft 538 kts 115°
2026-05-05 18:00 30.51034 -93.03643 39014 ft 538 kts 115°
2026-05-05 18:00 30.47908 -92.95777 39021 ft 537 kts 115°
2026-05-05 18:01 30.44779 -92.87924 39008 ft 537 kts 115°
2026-05-05 18:01 30.41668 -92.80133 39009 ft 536 kts 115°
2026-05-05 18:02 30.38533 -92.72299 39018 ft 535 kts 115°
2026-05-05 18:02 30.35404 -92.64495 39007 ft 534 kts 115°
2026-05-05 18:03 30.32270 -92.56696 39019 ft 534 kts 115°
2026-05-05 18:03 30.29151 -92.48952 39014 ft 532 kts 115°
2026-05-05 18:04 30.26022 -92.41198 39012 ft 531 kts 115°
2026-05-05 18:04 30.22887 -92.33442 39024 ft 532 kts 114°
2026-05-05 18:05 30.19755 -92.25719 39012 ft 530 kts 114°
2026-05-05 18:05 30.16428 -92.18098 39020 ft 531 kts 117°
2026-05-05 18:06 30.12951 -92.10590 39014 ft 529 kts 118°
2026-05-05 18:06 30.09453 -92.03094 39018 ft 530 kts 118°
2026-05-05 18:07 30.05978 -91.95646 39023 ft 530 kts 118°
2026-05-05 18:07 30.02484 -91.88164 39013 ft 530 kts 118°
2026-05-05 18:08 29.98982 -91.80676 39026 ft 530 kts 118°
2026-05-05 18:08 29.95479 -91.73201 39017 ft 530 kts 118°
2026-05-05 18:09 29.91973 -91.65733 39020 ft 528 kts 118°
2026-05-05 18:09 29.88490 -91.58326 39031 ft 529 kts 118°
2026-05-05 18:10 29.84985 -91.50886 39020 ft 528 kts 118°
2026-05-05 18:10 29.81478 -91.43458 39031 ft 527 kts 118°
2026-05-05 18:11 29.77957 -91.36022 39034 ft 527 kts 118°
2026-05-05 18:11 29.74447 -91.28619 39024 ft 526 kts 118°
2026-05-05 18:12 29.70962 -91.21281 39038 ft 526 kts 118°
2026-05-05 18:12 29.67458 -91.13918 39026 ft 525 kts 118°
2026-05-05 18:13 29.63945 -91.06548 39032 ft 525 kts 118°
2026-05-05 18:13 29.60429 -90.99187 39038 ft 524 kts 118°
2026-05-05 18:14 29.56916 -90.91844 39028 ft 524 kts 118°
2026-05-05 18:14 29.53408 -90.84518 39043 ft 524 kts 118°
2026-05-05 18:15 29.49907 -90.77226 39039 ft 524 kts 118°
2026-05-05 18:15 29.46382 -90.69897 39035 ft 524 kts 118°
2026-05-05 18:16 29.42855 -90.62582 39046 ft 523 kts 118°
2026-05-05 18:16 29.39327 -90.55281 39033 ft 523 kts 118°
2026-05-05 18:17 29.35804 -90.47997 39036 ft 523 kts 118°
2026-05-05 18:17 29.32294 -90.40754 39036 ft 523 kts 118°
2026-05-05 18:18 29.28758 -90.33464 39026 ft 523 kts 118°
2026-05-05 18:18 29.25212 -90.26171 39038 ft 523 kts 118°
2026-05-05 18:19 29.21689 -90.18943 39028 ft 523 kts 118°
2026-05-05 18:19 29.18199 -90.11646 39023 ft 522 kts 115°
2026-05-05 18:20 29.15157 -90.04095 39032 ft 521 kts 112°
2026-05-05 18:20 29.12303 -89.96476 39023 ft 519 kts 111°
2026-05-05 18:21 29.09472 -89.88873 39037 ft 519 kts 111°
2026-05-05 18:21 29.06650 -89.81334 39028 ft 519 kts 111°
2026-05-05 18:22 29.03794 -89.73742 39026 ft 519 kts 112°
2026-05-05 18:22 29.00935 -89.66156 39037 ft 519 kts 112°
2026-05-05 18:23 28.98078 -89.58593 39024 ft 518 kts 112°
2026-05-05 18:23 28.95222 -89.51045 39034 ft 518 kts 111°
2026-05-05 18:24 28.92382 -89.43538 39033 ft 518 kts 111°
2026-05-05 18:24 28.89517 -89.35986 39026 ft 518 kts 112°
2026-05-05 18:25 28.86648 -89.28447 39040 ft 518 kts 112°
2026-05-05 18:25 28.83775 -89.20924 39039 ft 516 kts 112°
2026-05-05 18:26 28.80919 -89.13455 39038 ft 517 kts 112°
2026-05-05 18:26 28.78040 -89.05935 39047 ft 517 kts 112°
2026-05-05 18:27 28.75170 -88.98453 39036 ft 517 kts 112°
2026-05-05 18:27 28.72289 -88.90952 39044 ft 516 kts 112°
2026-05-05 18:28 28.67957 -88.79695 39041 ft 515 kts 112°
2026-05-05 18:28 28.65075 -88.72241 39044 ft 514 kts 112°
2026-05-05 18:29 28.62207 -88.64835 39052 ft 514 kts 112°
2026-05-05 18:29 28.59302 -88.57340 39040 ft 514 kts 112°
2026-05-05 18:30 28.56420 -88.49922 39051 ft 514 kts 112°
2026-05-05 18:30 28.53523 -88.42482 39051 ft 514 kts 112°
2026-05-05 18:31 28.50627 -88.35053 39044 ft 514 kts 112°
2026-05-05 18:31 28.47737 -88.27658 39055 ft 514 kts 112°
2026-05-05 18:32 28.44827 -88.20227 39044 ft 514 kts 112°
2026-05-05 18:32 28.41915 -88.12804 39053 ft 513 kts 112°
2026-05-05 18:33 28.39060 -88.05416 39050 ft 513 kts 109°
2026-05-05 18:33 28.36628 -87.97806 39041 ft 511 kts 107°
2026-05-05 18:34 28.34398 -87.90161 39052 ft 510 kts 105°
2026-05-05 18:34 28.32198 -87.82503 39047 ft 511 kts 105°
2026-05-05 18:35 28.29982 -87.74839 39041 ft 511 kts 106°
2026-05-05 18:35 28.27751 -87.67173 39054 ft 511 kts 106°
2026-05-05 18:36 28.25536 -87.59570 39039 ft 510 kts 106°
2026-05-05 18:36 28.23305 -87.51920 39044 ft 510 kts 106°
2026-05-05 18:37 28.21071 -87.44268 39047 ft 510 kts 106°
2026-05-05 18:37 28.18838 -87.36645 39035 ft 510 kts 106°
2026-05-05 18:38 28.16613 -87.29064 39046 ft 509 kts 107°
2026-05-05 18:38 28.14369 -87.21438 39042 ft 509 kts 107°
2026-05-05 18:39 28.12126 -87.13840 39036 ft 509 kts 107°
2026-05-05 18:39 28.09879 -87.06235 39047 ft 508 kts 107°
2026-05-05 18:40 28.07630 -86.98647 39035 ft 508 kts 107°
2026-05-05 18:40 28.05381 -86.91079 39040 ft 507 kts 107°
2026-05-05 18:41 28.03146 -86.83568 39041 ft 506 kts 107°
2026-05-05 18:41 28.00898 -86.75998 39027 ft 506 kts 107°
2026-05-05 18:42 27.98704 -86.68444 39017 ft 504 kts 106°
2026-05-05 18:42 27.96521 -86.60887 39031 ft 504 kts 106°
2026-05-05 18:43 27.94349 -86.53399 39020 ft 504 kts 107°
2026-05-05 18:43 27.92156 -86.45849 39023 ft 504 kts 107°
2026-05-05 18:44 27.89974 -86.38362 39032 ft 504 kts 107°
2026-05-05 18:44 27.87776 -86.30840 39019 ft 503 kts 107°
2026-05-05 18:45 27.85942 -86.24577 39026 ft 503 kts 107°
2026-05-05 18:45 27.83739 -86.17065 39028 ft 504 kts 107°
2026-05-05 18:46 27.81527 -86.09542 39018 ft 504 kts 107°
2026-05-05 18:46 27.79313 -86.02026 39032 ft 504 kts 107°
2026-05-05 18:47 27.77109 -85.94560 39029 ft 504 kts 107°
2026-05-05 18:47 27.74893 -85.87068 39022 ft 502 kts 107°
2026-05-05 18:48 27.72674 -85.79579 39035 ft 502 kts 107°
2026-05-05 18:48 27.70458 -85.72125 39026 ft 502 kts 107°
2026-05-05 18:49 27.68236 -85.64669 39027 ft 500 kts 107°
2026-05-05 18:49 27.66016 -85.57232 39036 ft 500 kts 107°
2026-05-05 18:50 27.63791 -85.49796 39018 ft 498 kts 107°
2026-05-05 18:50 27.61583 -85.42436 39020 ft 498 kts 107°
2026-05-05 18:51 27.59557 -85.34983 39030 ft 495 kts 102°
2026-05-05 18:51 27.58017 -85.27409 39016 ft 494 kts 99°
2026-05-05 18:52 27.56654 -85.19846 39025 ft 492 kts 99°
2026-05-05 18:52 27.55333 -85.12297 39028 ft 491 kts 99°
2026-05-05 18:53 27.54022 -85.04803 39019 ft 489 kts 99°
2026-05-05 18:53 27.52701 -84.97299 39036 ft 488 kts 99°
2026-05-05 18:54 27.51376 -84.89793 39048 ft 487 kts 99°
2026-05-05 18:54 27.50053 -84.82307 39037 ft 486 kts 99°
2026-05-05 18:55 27.48730 -84.74841 39043 ft 485 kts 99°
2026-05-05 18:55 27.47405 -84.67396 39047 ft 484 kts 99°
2026-05-05 18:56 27.46088 -84.60006 39037 ft 483 kts 99°
2026-05-05 18:56 27.44762 -84.52593 39051 ft 483 kts 99°
2026-05-05 18:57 27.43431 -84.45188 39044 ft 482 kts 99°
2026-05-05 18:57 27.42514 -84.37721 39049 ft 480 kts 92°
2026-05-05 18:58 27.42076 -84.30228 39049 ft 479 kts 90°
2026-05-05 18:58 27.41817 -84.22739 39042 ft 478 kts 89°
2026-05-05 18:59 27.41606 -84.15254 39055 ft 478 kts 89°
2026-05-05 18:59 27.41397 -84.07762 39045 ft 478 kts 89°
2026-05-05 19:00 27.41184 -84.00323 39049 ft 478 kts 89°
2026-05-05 19:00 27.40948 -83.92873 39052 ft 475 kts 90°
2026-05-05 19:01 27.40711 -83.85441 39045 ft 475 kts 90°
2026-05-05 19:01 27.40484 -83.78045 39057 ft 475 kts 90°
2026-05-05 19:02 27.40258 -83.70613 39053 ft 475 kts 90°
2026-05-05 19:02 27.40025 -83.63170 39051 ft 475 kts 90°
2026-05-05 19:03 27.39784 -83.55743 39062 ft 475 kts 90°
2026-05-05 19:03 27.39542 -83.48316 39055 ft 474 kts 90°
2026-05-05 19:04 27.39298 -83.40901 39068 ft 474 kts 90°
2026-05-05 19:04 27.39050 -83.33489 39061 ft 474 kts 90°
2026-05-05 19:05 27.38799 -83.26121 39058 ft 473 kts 90°
2026-05-05 19:05 27.38541 -83.18713 39070 ft 474 kts 90°
2026-05-05 19:06 27.37579 -83.11362 39073 ft 476 kts 101°
2026-05-05 19:06 27.35870 -83.04195 39058 ft 478 kts 103°
2026-05-05 19:07 27.33989 -82.97032 39060 ft 478 kts 104°
2026-05-05 19:07 27.32078 -82.89874 39068 ft 478 kts 104°
2026-05-05 19:08 27.30169 -82.82723 39056 ft 477 kts 104°
2026-05-05 19:08 27.27842 -82.75712 39070 ft 480 kts 112°
2026-05-05 19:09 27.24911 -82.68953 39058 ft 481 kts 114°
2026-05-05 19:09 27.21906 -82.62223 39060 ft 481 kts 114°
2026-05-05 19:10 27.18933 -82.55533 39066 ft 481 kts 114°
2026-05-05 19:10 27.15957 -82.48818 39016 ft 481 kts 113°
2026-05-05 19:11 27.14451 -82.45407 38507 ft 481 kts 113°
2026-05-05 19:11 27.12978 -82.42076 37947 ft 480 kts 113°
2026-05-05 19:11 27.11494 -82.38725 37353 ft 478 kts 114°
2026-05-05 19:11 27.10014 -82.35391 36754 ft 476 kts 114°
2026-05-05 19:12 27.08540 -82.32075 36155 ft 474 kts 114°
2026-05-05 19:12 27.07070 -82.28771 35556 ft 472 kts 114°
2026-05-05 19:12 27.05606 -82.25484 34957 ft 470 kts 114°
2026-05-05 19:12 27.04145 -82.22206 34354 ft 469 kts 114°
2026-05-05 19:13 27.02692 -82.18947 33754 ft 468 kts 114°
2026-05-05 19:13 27.01227 -82.15664 33155 ft 472 kts 114°
2026-05-05 19:13 26.99746 -82.12345 32557 ft 480 kts 115°
2026-05-05 19:13 26.98243 -82.08981 31941 ft 484 kts 115°
2026-05-05 19:14 26.96520 -82.05707 31226 ft 488 kts 123°
2026-05-05 19:14 26.94429 -82.02728 30618 ft 486 kts 128°
2026-05-05 19:14 26.92225 -81.99887 30056 ft 480 kts 130°
2026-05-05 19:14 26.90020 -81.97178 29524 ft 473 kts 131°
2026-05-05 19:15 26.87792 -81.94504 29002 ft 466 kts 132°
2026-05-05 19:15 26.85579 -81.91872 28494 ft 459 kts 132°
2026-05-05 19:15 26.83400 -81.89291 27999 ft 453 kts 132°
2026-05-05 19:15 26.81248 -81.86745 27513 ft 447 kts 132°
2026-05-05 19:16 26.79123 -81.84232 27034 ft 441 kts 132°
2026-05-05 19:16 26.77021 -81.81758 26576 ft 436 kts 132°
2026-05-05 19:16 26.74937 -81.79323 26101 ft 431 kts 132°
2026-05-05 19:16 26.72870 -81.76914 25601 ft 427 kts 132°
2026-05-05 19:17 26.70818 -81.74523 25083 ft 424 kts 132°
2026-05-05 19:17 26.68780 -81.72147 24560 ft 422 kts 132°
2026-05-05 19:17 26.66774 -81.69811 24041 ft 420 kts 132°
2026-05-05 19:17 26.64776 -81.67429 23543 ft 416 kts 130°
2026-05-05 19:18 26.62928 -81.64958 23043 ft 413 kts 128°
2026-05-05 19:18 26.61137 -81.62451 22441 ft 413 kts 127°
2026-05-05 19:18 26.59375 -81.59915 21802 ft 414 kts 126°
2026-05-05 19:18 26.57629 -81.57359 21155 ft 414 kts 126°
2026-05-05 19:19 26.55882 -81.54783 20499 ft 415 kts 126°
2026-05-05 19:19 26.54141 -81.52215 19772 ft 413 kts 126°
2026-05-05 19:19 26.52450 -81.49711 19141 ft 402 kts 126°
2026-05-05 19:19 26.50791 -81.47251 18515 ft 392 kts 126°
2026-05-05 19:20 26.49174 -81.44854 17904 ft 382 kts 126°
2026-05-05 19:20 26.47588 -81.42500 17392 ft 379 kts 127°
2026-05-05 19:20 26.45996 -81.40140 16750 ft 382 kts 127°
2026-05-05 19:20 26.44396 -81.37771 16127 ft 383 kts 127°
2026-05-05 19:21 26.42789 -81.35391 15507 ft 384 kts 127°
2026-05-05 19:21 26.41172 -81.33023 14882 ft 384 kts 128°
2026-05-05 19:21 26.39491 -81.30722 14227 ft 379 kts 130°
2026-05-05 19:21 26.37834 -81.28514 13786 ft 362 kts 130°
2026-05-05 19:22 26.36252 -81.26412 13413 ft 346 kts 130°
2026-05-05 19:22 26.34745 -81.24406 13080 ft 330 kts 130°
2026-05-05 19:22 26.33291 -81.22465 12885 ft 321 kts 130°
2026-05-05 19:22 26.31866 -81.20563 12630 ft 319 kts 130°
2026-05-05 19:23 26.30440 -81.18658 12361 ft 321 kts 130°
2026-05-05 19:23 26.29008 -81.16748 12142 ft 321 kts 130°
2026-05-05 19:23 26.27558 -81.14832 11812 ft 323 kts 130°
2026-05-05 19:23 26.26131 -81.12954 11539 ft 320 kts 130°
2026-05-05 19:24 26.24710 -81.11083 11304 ft 313 kts 130°
2026-05-05 19:24 26.23318 -81.09252 11088 ft 306 kts 131°
2026-05-05 19:24 26.21951 -81.07455 10885 ft 300 kts 131°
2026-05-05 19:24 26.20618 -81.05702 10693 ft 294 kts 131°
2026-05-05 19:25 26.19308 -81.03981 10508 ft 287 kts 131°
2026-05-05 19:25 26.18026 -81.02295 10343 ft 281 kts 131°
2026-05-05 19:25 26.16773 -81.00650 10163 ft 276 kts 131°
2026-05-05 19:25 26.15567 -80.99065 10086 ft 267 kts 130°
2026-05-05 19:26 26.14632 -80.97310 9893 ft 264 kts 108°
2026-05-05 19:26 26.14255 -80.95325 9728 ft 261 kts 100°
2026-05-05 19:26 26.13940 -80.93328 9430 ft 265 kts 100°
2026-05-05 19:26 26.13615 -80.91297 9092 ft 268 kts 100°
2026-05-05 19:27 26.13279 -80.89246 8756 ft 270 kts 101°
2026-05-05 19:27 26.12936 -80.87176 8416 ft 272 kts 101°
2026-05-05 19:27 26.12589 -80.85100 8078 ft 274 kts 101°
2026-05-05 19:27 26.12239 -80.83012 7737 ft 275 kts 101°
2026-05-05 19:28 26.11886 -80.80910 7376 ft 277 kts 101°
2026-05-05 19:28 26.11549 -80.78792 7029 ft 279 kts 99°
2026-05-05 19:28 26.11250 -80.76659 6720 ft 278 kts 99°
2026-05-05 19:28 26.10963 -80.74567 6519 ft 274 kts 99°
2026-05-05 19:29 26.10676 -80.72487 6344 ft 268 kts 99°
2026-05-05 19:29 26.10394 -80.70454 6180 ft 264 kts 99°
2026-05-05 19:29 26.10117 -80.68456 6023 ft 258 kts 99°
2026-05-05 19:29 26.09848 -80.66515 5875 ft 249 kts 99°
2026-05-05 19:30 26.09588 -80.64642 5745 ft 241 kts 99°
2026-05-05 19:30 26.09335 -80.62818 5612 ft 235 kts 99°
2026-05-05 19:30 26.09088 -80.61047 5490 ft 230 kts 99°
2026-05-05 19:30 26.08846 -80.59306 5371 ft 225 kts 99°
2026-05-05 19:31 26.08607 -80.57592 5213 ft 224 kts 100°
2026-05-05 19:31 26.08367 -80.55880 5074 ft 222 kts 99°
2026-05-05 19:31 26.08135 -80.54212 5052 ft 215 kts 99°
2026-05-05 19:31 26.07928 -80.52588 5004 ft 210 kts 96°
2026-05-05 19:32 26.07890 -80.50982 4853 ft 211 kts 92°
2026-05-05 19:32 26.07876 -80.49340 4699 ft 212 kts 91°
2026-05-05 19:32 26.07875 -80.47698 4562 ft 211 kts 91°
2026-05-05 19:32 26.07880 -80.46093 4456 ft 202 kts 91°
2026-05-05 19:33 26.07877 -80.44544 4327 ft 200 kts 92°
2026-05-05 19:33 26.07856 -80.43010 4180 ft 196 kts 93°
2026-05-05 19:33 26.07822 -80.41520 4066 ft 188 kts 94°
2026-05-05 19:33 26.07805 -80.40577 4052 ft 178 kts 93°
2026-05-05 19:34 26.07800 -80.39191 3981 ft 176 kts 91°
2026-05-05 19:34 26.07821 -80.37846 3814 ft 175 kts 91°
2026-05-05 19:34 26.07839 -80.36495 3579 ft 174 kts 92°
2026-05-05 19:35 26.07795 -80.33823 3092 ft 171 kts 95°
2026-05-05 19:35 26.07767 -80.32503 2869 ft 170 kts 95°
2026-05-05 19:35 26.07759 -80.31213 2651 ft 164 kts 93°
2026-05-05 19:35 26.07772 -80.29959 2435 ft 161 kts 92°
2026-05-05 19:36 26.07781 -80.28722 2215 ft 159 kts 93°
2026-05-05 19:36 26.07770 -80.27493 2010 ft 158 kts 94°
2026-05-05 19:36 26.07745 -80.26276 1789 ft 157 kts 94°
2026-05-05 19:36 26.07730 -80.25064 1583 ft 156 kts 92°
2026-05-05 19:37 26.07730 -80.23856 1385 ft 156 kts 90°
2026-05-05 19:37 26.07735 -80.22652 1178 ft 156 kts 90°
2026-05-05 19:37 26.07731 -80.21449 972 ft 155 kts 90°
2026-05-05 19:37 26.07718 -80.20260 768 ft 155 kts 90°
2026-05-05 19:38 26.07705 -80.19060 561 ft 155 kts 90°
2026-05-05 19:38 26.07699 -80.17867 356 ft 154 kts 90°
2026-05-05 19:38 26.07701 -80.16676 152 ft 154 kts 90°
2026-05-05 19:38 26.07702 -80.15580 78 ft 109 kts 91°
2026-05-05 19:39 26.07695 -80.15074 78 ft 22 kts 91°
2026-05-05 19:39 26.07693 -80.15015 78 ft 16 kts 91°
2026-05-05 19:39 26.07688 -80.14786 78 ft 40 kts 96°
2026-05-05 19:39 26.07565 -80.14453 78 ft 50 kts 103°
2026-05-05 19:40 26.07557 -80.14127 78 ft 32 kts 89°
2026-05-05 19:40 26.07497 -80.14007 78 ft 18 kts 171°
2026-05-05 19:40 26.07427 -80.14041 78 ft 0 kts 227°